Track PICOSAT 6 now! 10-day predictions PICOSAT 6 is classified as:
1 26094U 00004M 21022.83607648 .00000117 00000-0 52847-4 0 9993 2 26094 100.2010 343.0847 0034638 56.0255 304.4213 14.42703884100631